QPF
0.02 0.03 0.02 0.01 0.01 0.01 0.01 0.02 0.03 0.03 0.02 0.02 0.02 0.02 0.01 0.02 0.02 0.03 0.04 0.05 0.06 0.07 0.06 0.07 0.09 0.11 0.12 0.13 0.15 0.17 0.22 0.24 0.26 0.26 0.22 0.18 0.16 0.15 0.15 0.12 0.11 0.10 0.10
0.02 0.03 0.04 0.02 0.01 0.02 0.02 0.02 0.02 0.02 0.02 0.02 0.02 0.01 0.01 0.01 0.02 0.03 0.03 0.03 0.04 0.05 0.05 0.06 0.06 0.08 0.10 0.11 0.12 0.14 0.16 0.18 0.20 0.20 0.18 0.15 0.14 0.12 0.11 0.10 0.10 0.09 0.09
0.02 0.02 0.02 0.03 0.02 0.03 0.03 0.04 0.04 0.02 0.02 0.02 0.02 0.02 0.02 0.03 0.03 0.03 0.03 0.03 0.03 0.04 0.05 0.06 0.06 0.06 0.07 0.09 0.10 0.11 0.13 0.13 0.14 0.13 0.12 0.11 0.11 0.09 0.09 0.10 0.09 0.08 0.06
0.01 0.02 0.02 0.03 0.04 0.04 0.04 0.04 0.04 0.03 0.03 0.02 0.02 0.02 0.03 0.03 0.05 0.06 0.06 0.04 0.03 0.04 0.05 0.05 0.06 0.06 0.06 0.07 0.07 0.09 0.10 0.11 0.11 0.11 0.11 0.11 0.10 0.09 0.08 0.09 0.09 0.08 0.06
0.02 0.02 0.03 0.04 0.04 0.04 0.04 0.04 0.03 0.03 0.03 0.02 0.02 0.02 0.03 0.04 0.05 0.06 0.08 0.06 0.05 0.06 0.07 0.06 0.06 0.06 0.07 0.07 0.07 0.09 0.10 0.10 0.10 0.10 0.10 0.10 0.09 0.10 0.08 0.07 0.09 0.09 0.08
0.02 0.03 0.03 0.04 0.04 0.04 0.05 0.04 0.03 0.03 0.03 0.02 0.02 0.02 0.02 0.02 0.04 0.05 0.06 0.08 0.09 0.09 0.09 0.08 0.07 0.07 0.07 0.07 0.07 0.07 0.08 0.08 0.09 0.08 0.08 0.09 0.09 0.09 0.08 0.06 0.08 0.09 0.09
0.03 0.04 0.04 0.04 0.03 0.03 0.03 0.04 0.04 0.04 0.04 0.04 0.03 0.02 0.02 0.01 0.02 0.03 0.05 0.07 0.09 0.11 0.10 0.09 0.08 0.07 0.06 0.06 0.07 0.06 0.06 0.05 0.06 0.06 0.07 0.08 0.09 0.09 0.08 0.08 0.07 0.08 0.07
0.04 0.04 0.03 0.03 0.04 0.04 0.04 0.06 0.06 0.07 0.06 0.05 0.04 0.03 0.03 0.01 0.02 0.03 0.05 0.08 0.10 0.11 0.08 0.07 0.07 0.06 0.05 0.05 0.06 0.07 0.06 0.04 0.03 0.03 0.04 0.04 0.04 0.04 0.04 0.06 0.06 0.06 0.05
0.04 0.04 0.02 0.03 0.04 0.05 0.05 0.06 0.08 0.08 0.08 0.06 0.05 0.06 0.06 0.02 0.02 0.05 0.07 0.09 0.11 0.10 0.08 0.05 0.04 0.04 0.04 0.04 0.06 0.07 0.06 0.04 0.02 0.02 0.01 0.01 0.01 0.01 0.02 0.03 0.05 0.06 0.06
0.03 0.03 0.03 0.04 0.05 0.05 0.05 0.07 0.07 0.07 0.09 0.08 0.05 0.05 0.03 0.03 0.04 0.07 0.11 0.10 0.11 0.10 0.08 0.05 0.04 0.04 0.03 0.03 0.06 0.07 0.06 0.04 0.03 0.02 0.02 0.02 0.01 0.01 0.01 0.03 0.05 0.05 0.05
0.02 0.03 0.03 0.04 0.05 0.04 0.04 0.06 0.06 0.06 0.08 0.09 0.05 0.03 0.02 0.03 0.04 0.07 0.09 0.09 0.09 0.08 0.06 0.05 0.03 0.04 0.03 0.02 0.02 0.03 0.01 0.02 0.05 0.06 0.05 0.04 0.03 0.03 0.02 0.02 0.03 0.04 0.05
0.03 0.03 0.03 0.03 0.03 0.03 0.04 0.06 0.07 0.08 0.07 0.07 0.05 0.03 0.03 0.03 0.03 0.03 0.04 0.05 0.06 0.07 0.06 0.03 0.02 0.02 0.01 0.01 0.00 0.00 0.00 0.01 0.04 0.05 0.05 0.05 0.04 0.04 0.04 0.03 0.02 0.02 0.03
0.04 0.04 0.03 0.03 0.02 0.02 0.04 0.05 0.07 0.11 0.11 0.07 0.06 0.05 0.03 0.02 0.02 0.03 0.03 0.03 0.03 0.04 0.03 0.02 0.01 0.01 0.00 0.01 0.00 0.00 0.01 0.02 0.04 0.04 0.04 0.04 0.04 0.03 0.03 0.03 0.02 0.02 0.01
0.04 0.04 0.04 0.04 0.03 0.03 0.03 0.04 0.05 0.07 0.08 0.08 0.06 0.06 0.04 0.03 0.02 0.02 0.02 0.02 0.02 0.01 0.01 0.01 0.00 0.00 0.00 0.01 0.01 0.01 0.02 0.02 0.02 0.03 0.03 0.03 0.02 0.02 0.02 0.02 0.02 0.02 0.02
0.05 0.04 0.04 0.04 0.04 0.04 0.03 0.03 0.03 0.02 0.02 0.04 0.05 0.06 0.05 0.02 0.01 0.01 0.01 0.01 0.01 0.01 0.01 0.01 0.01 0.01 0.01 0.02 0.02 0.02 0.02 0.01 0.01 0.01 0.01 0.01 0.01 0.01 0.01 0.01 0.01 0.01 0.01
0.04 0.03 0.02 0.02 0.02 0.02 0.02 0.02 0.01 0.01 0.01 0.01 0.02 0.03 0.03 0.01 0.01 0.00 0.00 0.00 0.00 0.00 0.01 0.02 0.02 0.01 0.01 0.01 0.01 0.01 0.01 0.01 0.01 0.01 0.01 0.00 0.00 0.00 0.00 0.00 0.00 0.00 0.01
0.03 0.02 0.01 0.01 0.02 0.02 0.02 0.01 0.00 0.00 0.01 0.01 0.01 0.01 0.01 0.01 0.00 0.00 0.00 0.00 0.00 0.00 0.01 0.01 0.01 0.01 0.00 0.00 0.00 0.00 0.00 0.00 0.01 0.01 0.01 0.01 0.00 0.00 0.01 0.00 0.00 0.00 0.00
0.01 0.01 0.01 0.01 0.01 0.01 0.01 0.00 0.00 0.00 0.00 0.00 0.00 0.00 0.00 0.00 0.00 0.00 0.00 0.00 0.01 0.01 0.01 0.01 0.01 0.00 0.00 0.00 0.00 0.00 0.00 0.00 0.00 0.01 0.01 0.01 0.00 0.00 0.00 0.00 0.00 0.00 0.00
0.00 0.00 0.01 0.01 0.01 0.00 0.00 0.00 0.00 0.00 0.00 0.00 0.00 0.00 0.00 0.00 0.00 0.00 0.00 0.01 0.01 0.01 0.01 0.01 0.01 0.01 0.00 0.00 0.00 0.00 0.00 0.00 0.00 0.00 0.00 0.01 0.00 0.00 0.00 0.00 0.00 0.00 0.00
0.00 0.00 0.00 0.00 0.00 0.00 0.00 0.00 0.00 0.00 0.00 0.00 0.00 0.00 0.00 0.00 0.00 0.00 0.00 0.00 0.00 0.00 0.00 0.01 0.01 0.01 0.01 0.00 0.00 0.00 0.00 0.00 0.00 0.00 0.00 0.00 0.01 0.00 0.00 0.00 0.00 0.00 0.00
0.00 0.00 0.00 0.00 0.00 0.00 0.00 0.00 0.00 0.00 0.00 0.00 0.00 0.00 0.00 0.00 0.00 0.00 0.00 0.00 0.00 0.00 0.00 0.00 0.01 0.01 0.00 0.01 0.01 0.00 0.00 0.00 0.00 0.00 0.00 0.00 0.00 0.00 0.00 0.00 0.00 0.00 0.00
0.00 0.00 0.00 0.00 0.00 0.00 0.00 0.00 0.00 0.00 0.00 0.00 0.00 0.00 0.00 0.00 0.00 0.00 0.00 0.00 0.00 0.00 0.00 0.00 0.00 0.00 0.00 0.00 0.00 0.00 0.00 0.00 0.00 0.00 0.00 0.00 0.00 0.00 0.00 0.00 0.00 0.00 0.00
0.00 0.00 0.00 0.00 0.00 0.00 0.00 0.00 0.00 0.00 0.00 0.00 0.00 0.00 0.00 0.00 0.00 0.00 0.00 0.00 0.00 0.00 0.00 0.00 0.00 0.00 0.00 0.00 0.00 0.00 0.00 0.00 0.00 0.00 0.00 0.00 0.00 0.00 0.00 0.00 0.00 0.00 0.00
0.00 0.00 0.00 0.00 0.00 0.00 0.00 0.00 0.00 0.00 0.00 0.00 0.00 0.00 0.00 0.00 0.00 0.00 0.00 0.00 0.00 0.00 0.00 0.00 0.00 0.00 0.00 0.00 0.00 0.00 0.00 0.00 0.00 0.00 0.00 0.00 0.00 0.00 0.00 0.00 0.00 0.00 0.00
0.00 0.00 0.00 0.00 0.00 0.00 0.00 0.00 0.00 0.00 0.00 0.00 0.00 0.00 0.00 0.00 0.00 0.00 0.00 0.00 0.00 0.00 0.00 0.00 0.00 0.00 0.00 0.00 0.00 0.00 0.00 0.00 0.00 0.00 0.00 0.00 0.00 0.00 0.00 0.00 0.00 0.00 0.00
0.00 0.00 0.00 0.00 0.00 0.00 0.00 0.00 0.00 0.00 0.00 0.00 0.00 0.00 0.00 0.00 0.00 0.00 0.00 0.00 0.00 0.00 0.00 0.00 0.00 0.00 0.00 0.00 0.00 0.00 0.00 0.00 0.00 0.00 0.00 0.00 0.00 0.00 0.00 0.00 0.00 0.00 0.00
MSLP
1018.39 1018.25 1018.11 1017.95 1017.78 1017.61 1017.45 1017.31 1017.21 1017.15 1017.13 1017.14 1017.15 1017.16 1017.13 1017.05 1016.91 1016.72 1016.49 1016.25 1016.03 1015.88 1015.83 1015.91 1016.14 1016.52 1017.06 1017.74 1018.51 1019.35 1020.20 1021.03 1021.79 1022.46 1023.00 1023.41 1023.71 1023.92 1024.07 1024.20 1024.35 1024.54 1024.79
1018.73 1018.62 1018.51 1018.40 1018.27 1018.14 1018.00 1017.88 1017.78 1017.71 1017.67 1017.66 1017.67 1017.67 1017.64 1017.58 1017.47 1017.31 1017.11 1016.91 1016.71 1016.56 1016.50 1016.54 1016.72 1017.03 1017.49 1018.07 1018.75 1019.48 1020.24 1020.98 1021.66 1022.25 1022.74 1023.11 1023.38 1023.57 1023.71 1023.84 1023.99 1024.18 1024.43
1019.13 1019.06 1019.00 1018.93 1018.84 1018.74 1018.63 1018.51 1018.41 1018.33 1018.28 1018.25 1018.23 1018.23 1018.21 1018.16 1018.08 1017.95 1017.80 1017.63 1017.46 1017.33 1017.26 1017.28 1017.40 1017.65 1018.01 1018.49 1019.06 1019.68 1020.33 1020.96 1021.55 1022.06 1022.49 1022.82 1023.06 1023.24 1023.38 1023.52 1023.67 1023.86 1024.10
1019.60 1019.59 1019.57 1019.55 1019.50 1019.43 1019.33 1019.22 1019.11 1019.02 1018.94 1018.89 1018.86 1018.84 1018.82 1018.78 1018.72 1018.63 1018.51 1018.37 1018.23 1018.12 1018.05 1018.05 1018.13 1018.31 1018.59 1018.97 1019.43 1019.94 1020.47 1021.00 1021.50 1021.94 1022.32 1022.61 1022.84 1023.02 1023.16 1023.30 1023.45 1023.64 1023.86
1020.13 1020.17 1020.21 1020.23 1020.21 1020.16 1020.07 1019.97 1019.86 1019.75 1019.65 1019.58 1019.53 1019.50 1019.47 1019.43 1019.38 1019.30 1019.21 1019.10 1018.99 1018.89 1018.82 1018.81 1018.86 1018.99 1019.20 1019.49 1019.84 1020.25 1020.69 1021.12 1021.55 1021.93 1022.26 1022.54 1022.76 1022.94 1023.09 1023.24 1023.39 1023.56 1023.75
1020.68 1020.78 1020.86 1020.91 1020.91 1020.88 1020.80 1020.70 1020.58 1020.46 1020.36 1020.27 1020.20 1020.15 1020.10 1020.06 1020.01 1019.94 1019.87 1019.78 1019.69 1019.61 1019.55 1019.53 1019.57 1019.66 1019.81 1020.03 1020.31 1020.63 1020.98 1021.34 1021.70 1022.03 1022.34 1022.60 1022.83 1023.01 1023.18 1023.33 1023.47 1023.62 1023.78
1021.21 1021.35 1021.46 1021.52 1021.54 1021.51 1021.44 1021.34 1021.23 1021.11 1020.99 1020.89 1020.81 1020.75 1020.69 1020.64 1020.59 1020.52 1020.46 1020.39 1020.32 1020.27 1020.23 1020.22 1020.25 1020.32 1020.44 1020.61 1020.83 1021.08 1021.36 1021.66 1021.96 1022.25 1022.53 1022.79 1023.01 1023.21 1023.38 1023.53 1023.67 1023.79 1023.90
1021.67 1021.82 1021.94 1022.01 1022.03 1022.00 1021.93 1021.83 1021.72 1021.61 1021.50 1021.41 1021.33 1021.26 1021.20 1021.14 1021.09 1021.03 1020.98 1020.93 1020.90 1020.87 1020.86 1020.88 1020.92 1020.99 1021.09 1021.23 1021.39 1021.59 1021.81 1022.05 1022.30 1022.56 1022.81 1023.05 1023.27 1023.47 1023.64 1023.78 1023.90 1023.99 1024.06
1022.03 1022.17 1022.28 1022.33 1022.34 1022.30 1022.23 1022.15 1022.05 1021.96 1021.87 1021.79 1021.73 1021.67 1021.61 1021.56 1021.52 1021.48 1021.44 1021.43 1021.42 1021.43 1021.46 1021.51 1021.57 1021.65 1021.75 1021.86 1021.98 1022.13 1022.29 1022.48 1022.68 1022.89 1023.11 1023.33 1023.53 1023.72 1023.88 1024.01 1024.11 1024.17 1024.19
1022.27 1022.39 1022.46 1022.49 1022.47 1022.42 1022.36 1022.29 1022.22 1022.16 1022.11 1022.07 1022.03 1022.00 1021.97 1021.94 1021.91 1021.88 1021.88 1021.89 1021.91 1021.97 1022.03 1022.11 1022.20 1022.29 1022.38 1022.47 1022.56 1022.66 1022.77 1022.89 1023.03 1023.19 1023.37 1023.55 1023.74 1023.91 1024.05 1024.17 1024.24 1024.27 1024.26
1022.40 1022.49 1022.52 1022.50 1022.46 1022.40 1022.35 1022.31 1022.28 1022.27 1022.27 1022.29 1022.30 1022.30 1022.30 1022.30 1022.29 1022.29 1022.30 1022.34 1022.39 1022.47 1022.57 1022.68 1022.78 1022.88 1022.96 1023.03 1023.08 1023.13 1023.18 1023.24 1023.32 1023.42 1023.55 1023.69 1023.84 1023.99 1024.12 1024.21 1024.27 1024.28 1024.24
1022.46 1022.49 1022.47 1022.42 1022.36 1022.30 1022.26 1022.26 1022.29 1022.34 1022.42 1022.49 1022.57 1022.62 1022.66 1022.68 1022.70 1022.71 1022.74 1022.78 1022.85 1022.94 1023.05 1023.17 1023.27 1023.36 1023.43 1023.46 1023.47 1023.47 1023.46 1023.46 1023.48 1023.53 1023.61 1023.71 1023.84 1023.96 1024.07 1024.15 1024.19 1024.19 1024.13
1022.45 1022.43 1022.37 1022.29 1022.21 1022.17 1022.16 1022.21 1022.30 1022.43 1022.59 1022.74 1022.88 1022.99 1023.07 1023.11 1023.14 1023.16 1023.18 1023.21 1023.27 1023.35 1023.44 1023.54 1023.63 1023.69 1023.73 1023.73 1023.70 1023.65 1023.59 1023.54 1023.51 1023.52 1023.55 1023.63 1023.72 1023.83 1023.92 1023.99 1024.03 1024.02 1023.96
1022.41 1022.35 1022.25 1022.15 1022.07 1022.04 1022.08 1022.18 1022.35 1022.56 1022.80 1023.03 1023.24 1023.40 1023.51 1023.58 1023.60 1023.60 1023.60 1023.60 1023.61 1023.65 1023.70 1023.76 1023.81 1023.84 1023.84 1023.81 1023.74 1023.66 1023.56 1023.48 1023.42 1023.39 1023.40 1023.45 1023.52 1023.62 1023.70 1023.77 1023.81 1023.79 1023.73
1022.34 1022.24 1022.12 1022.01 1021.94 1021.94 1022.03 1022.19 1022.43 1022.73 1023.04 1023.34 1023.61 1023.82 1023.95 1024.02 1024.03 1024.00 1023.95 1023.89 1023.85 1023.82 1023.81 1023.80 1023.80 1023.79 1023.76 1023.70 1023.61 1023.51 1023.40 1023.30 1023.22 1023.18 1023.18 1023.22 1023.28 1023.37 1023.45 1023.51 1023.54 1023.53 1023.46
1022.25 1022.13 1021.99 1021.88 1021.83 1021.86 1021.98 1022.20 1022.51 1022.87 1023.24 1023.61 1023.92 1024.16 1024.31 1024.38 1024.37 1024.29 1024.18 1024.06 1023.93 1023.83 1023.74 1023.68 1023.62 1023.57 1023.51 1023.43 1023.34 1023.24 1023.14 1023.05 1022.99 1022.95 1022.95 1022.98 1023.04 1023.11 1023.18 1023.23 1023.25 1023.22 1023.15
1022.15 1022.00 1021.86 1021.75 1021.70 1021.75 1021.91 1022.17 1022.51 1022.92 1023.35 1023.75 1024.10 1024.36 1024.52 1024.58 1024.54 1024.42 1024.25 1024.06 1023.86 1023.68 1023.53 1023.41 1023.31 1023.23 1023.16 1023.09 1023.01 1022.94 1022.87 1022.80 1022.76 1022.74 1022.74 1022.77 1022.81 1022.87 1022.92 1022.94 1022.94 1022.89 1022.79
1022.02 1021.86 1021.71 1021.59 1021.54 1021.59 1021.76 1022.03 1022.40 1022.83 1023.28 1023.71 1024.07 1024.35 1024.51 1024.56 1024.50 1024.35 1024.14 1023.89 1023.64 1023.40 1023.20 1023.04 1022.92 1022.83 1022.76 1022.72 1022.68 1022.65 1022.62 1022.59 1022.58 1022.58 1022.58 1022.60 1022.63 1022.65 1022.67 1022.65 1022.61 1022.53 1022.40
1021.87 1021.70 1021.53 1021.39 1021.32 1021.36 1021.52 1021.78 1022.14 1022.56 1023.01 1023.45 1023.82 1024.10 1024.27 1024.32 1024.25 1024.08 1023.85 1023.58 1023.29 1023.03 1022.80 1022.62 1022.50 1022.42 1022.38 1022.38 1022.39 1022.41 1022.43 1022.45 1022.46 1022.47 1022.48 1022.49 1022.48 1022.46 1022.43 1022.37 1022.27 1022.14 1021.98
1021.71 1021.52 1021.32 1021.16 1021.06 1021.06 1021.18 1021.41 1021.73 1022.13 1022.56 1022.98 1023.35 1023.63 1023.80 1023.86 1023.80 1023.65 1023.42 1023.14 1022.86 1022.59 1022.37 1022.20 1022.10 1022.05 1022.05 1022.09 1022.15 1022.23 1022.30 1022.36 1022.40 1022.42 1022.42 1022.40 1022.36 1022.29 1022.20 1022.08 1021.94 1021.76 1021.56
1021.55 1021.33 1021.10 1020.90 1020.76 1020.71 1020.77 1020.94 1021.21 1021.56 1021.95 1022.35 1022.71 1022.99 1023.18 1023.25 1023.22 1023.09 1022.89 1022.64 1022.38 1022.14 1021.94 1021.80 1021.72 1021.71 1021.76 1021.85 1021.96 1022.08 1022.19 1022.28 1022.35 1022.37 1022.36 1022.31 1022.23 1022.11 1021.97 1021.80 1021.61 1021.40 1021.17
1021.39 1021.15 1020.89 1020.64 1020.45 1020.35 1020.34 1020.44 1020.65 1020.94 1021.28 1021.64 1021.98 1022.26 1022.46 1022.56 1022.57 1022.48 1022.32 1022.11 1021.89 1021.69 1021.52 1021.42 1021.37 1021.40 1021.48 1021.61 1021.76 1021.92 1022.06 1022.18 1022.25 1022.27 1022.25 1022.18 1022.06 1021.91 1021.73 1021.53 1021.31 1021.07 1020.82
1021.23 1020.97 1020.69 1020.41 1020.17 1020.01 1019.94 1019.97 1020.11 1020.33 1020.62 1020.94 1021.26 1021.53 1021.74 1021.87 1021.91 1021.86 1021.74 1021.58 1021.40 1021.24 1021.11 1021.03 1021.02 1021.07 1021.18 1021.33 1021.51 1021.69 1021.84 1021.97 1022.05 1022.07 1022.04 1021.95 1021.82 1021.65 1021.46 1021.24 1021.01 1020.77 1020.52
1021.06 1020.81 1020.51 1020.21 1019.94 1019.73 1019.61 1019.58 1019.65 1019.81 1020.05 1020.32 1020.61 1020.87 1021.08 1021.22 1021.28 1021.27 1021.19 1021.07 1020.93 1020.79 1020.68 1020.62 1020.62 1020.68 1020.80 1020.96 1021.14 1021.33 1021.49 1021.62 1021.71 1021.73 1021.70 1021.61 1021.48 1021.31 1021.11 1020.90 1020.68 1020.45 1020.22
1020.88 1020.64 1020.35 1020.05 1019.77 1019.53 1019.36 1019.29 1019.31 1019.41 1019.59 1019.82 1020.07 1020.31 1020.51 1020.65 1020.72 1020.72 1020.67 1020.56 1020.44 1020.31 1020.21 1020.16 1020.15 1020.21 1020.32 1020.47 1020.64 1020.82 1020.98 1021.11 1021.20 1021.23 1021.20 1021.12 1021.00 1020.84 1020.66 1020.47 1020.27 1020.06 1019.85
1020.66 1020.45 1020.19 1019.91 1019.63 1019.38 1019.20 1019.09 1019.07 1019.12 1019.25 1019.43 1019.64 1019.84 1020.01 1020.14 1020.20 1020.20 1020.15 1020.05 1019.92 1019.79 1019.69 1019.62 1019.60 1019.63 1019.72 1019.85 1020.01 1020.17 1020.33 1020.45 1020.53 1020.57 1020.55 1020.48 1020.37 1020.23 1020.07 1019.90 1019.72 1019.53 1019.34
Thickness
5604 5602 5600 5599 5598 5597 5596 5595 5595 5595 5596 5596 5598 5599 5600 5601 5603 5604 5606 5607 5608 5610 5611 5613 5614 5615 5616 5617 5617 5616 5615 5612 5605 5597 5594 5592 5589 5587 5585 5583 5582 5580 5578
5595 5592 5590 5588 5587 5587 5586 5585 5585 5585 5585 5586 5587 5588 5589 5590 5592 5593 5595 5596 5597 5598 5600 5601 5603 5605 5605 5606 5606 5606 5604 5602 5598 5590 5584 5581 5579 5577 5575 5574 5572 5570 5569
5587 5583 5581 5579 5577 5576 5575 5575 5575 5575 5575 5575 5576 5577 5578 5579 5580 5581 5583 5584 5585 5587 5588 5589 5591 5593 5594 5595 5595 5594 5593 5591 5588 5583 5577 5573 5570 5568 5566 5565 5564 5563 5561
5577 5574 5571 5569 5567 5566 5565 5565 5565 5565 5565 5566 5566 5567 5568 5568 5569 5570 5572 5573 5574 5576 5577 5579 5580 5581 5582 5583 5583 5582 5582 5579 5576 5572 5568 5564 5561 5559 5558 5556 5555 5555 5554
5567 5564 5561 5560 5558 5557 5556 5556 5556 5557 5557 5557 5557 5558 5558 5558 5557 5558 5561 5563 5563 5565 5567 5568 5569 5570 5571 5572 5573 5571 5571 5569 5566 5563 5559 5556 5553 5551 5550 5550 5549 5548 5547
5558 5555 5553 5552 5550 5549 5548 5548 5548 5548 5548 5548 5548 5548 5547 5546 5546 5548 5550 5551 5553 5555 5556 5557 5559 5559 5560 5561 5561 5561 5561 5559 5557 5554 5551 5549 5547 5546 5545 5544 5542 5541 5538
5550 5548 5546 5545 5543 5542 5542 5541 5540 5539 5539 5539 5539 5539 5537 5536 5537 5539 5540 5543 5544 5546 5547 5549 5551 5549 5550 5551 5551 5551 5550 5549 5549 5548 5545 5543 5541 5540 5539 5537 5536 5535 5534
5543 5541 5539 5538 5536 5535 5534 5533 5532 5532 5532 5531 5531 5531 5530 5528 5529 5530 5533 5535 5536 5538 5538 5539 5540 5539 5540 5542 5544 5542 5541 5540 5540 5540 5538 5536 5535 5533 5533 5532 5531 5530 5530
5537 5535 5533 5531 5530 5528 5528 5527 5526 5525 5525 5525 5524 5524 5523 5521 5522 5524 5525 5527 5528 5529 5530 5531 5532 5531 5531 5534 5536 5535 5534 5532 5531 5531 5531 5530 5529 5528 5527 5526 5525 5524 5523
5531 5529 5527 5525 5524 5523 5522 5522 5521 5520 5520 5520 5519 5518 5517 5516 5516 5518 5520 5522 5522 5522 5522 5522 5522 5524 5525 5526 5528 5529 5527 5526 5526 5525 5524 5524 5523 5523 5522 5521 5521 5520 5519
5528 5525 5522 5521 5520 5519 5518 5518 5517 5517 5516 5515 5514 5513 5512 5511 5512 5513 5514 5516 5517 5517 5518 5517 5516 5517 5519 5521 5522 5522 5521 5521 5522 5522 5521 5521 5520 5519 5519 5518 5518 5517 5516
5524 5521 5519 5517 5517 5516 5515 5514 5514 5514 5513 5512 5511 5511 5510 5508 5508 5508 5510 5511 5511 5512 5512 5512 5511 5513 5514 5516 5518 5518 5519 5519 5520 5520 5519 5518 5517 5516 5516 5516 5516 5515 5515
5521 5518 5516 5514 5514 5513 5513 5512 5512 5512 5511 5511 5511 5510 5508 5507 5505 5505 5506 5506 5507 5507 5507 5507 5508 5510 5511 5513 5514 5516 5517 5518 5518 5517 5516 5515 5516 5515 5515 5515 5515 5514 5514
5519 5516 5515 5513 5512 5511 5511 5511 5511 5510 5510 5511 5510 5509 5507 5506 5503 5502 5503 5504 5503 5505 5506 5506 5508 5509 5510 5511 5513 5514 5515 5516 5516 5515 5515 5514 5515 5514 5514 5514 5513 5513 5512
5519 5517 5515 5514 5512 5510 5509 5506 5507 5504 5504 5505 5505 5506 5505 5502 5498 5498 5499 5501 5501 5501 5503 5507 5509 5511 5512 5514 5515 5516 5517 5516 5516 5515 5515 5514 5514 5514 5514 5514 5514 5513 5512
5520 5519 5518 5517 5515 5514 5511 5507 5503 5503 5502 5502 5502 5502 5500 5500 5499 5500 5500 5501 5501 5502 5504 5509 5512 5514 5515 5516 5516 5517 5518 5517 5516 5516 5515 5515 5514 5514 5514 5514 5514 5513 5513
5523 5521 5521 5520 5519 5518 5516 5513 5510 5505 5504 5503 5503 5503 5502 5502 5502 5502 5503 5503 5505 5505 5507 5513 5516 5517 5518 5519 5519 5519 5518 5518 5517 5516 5516 5515 5515 5515 5515 5515 5515 5515 5514
5527 5524 5524 5524 5523 5523 5522 5521 5519 5516 5513 5510 5508 5507 5506 5506 5506 5506 5506 5506 5511 5514 5516 5518 5520 5521 5521 5522 5521 5521 5520 5520 5519 5518 5518 5517 5517 5517 5516 5516 5516 5515 5515
5531 5530 5528 5529 5528 5528 5528 5528 5527 5526 5524 5522 5519 5515 5513 5512 5511 5511 5511 5513 5519 5523 5525 5525 5525 5525 5525 5524 5524 5523 5523 5522 5522 5520 5520 5519 5519 5518 5518 5518 5517 5516 5515
5534 5531 5531 5533 5534 5534 5535 5534 5534 5533 5533 5532 5530 5527 5523 5520 5521 5523 5522 5524 5527 5529 5530 5530 5530 5529 5528 5528 5528 5527 5527 5525 5524 5523 5522 5521 5521 5520 5519 5519 5519 5518 5518
5542 5540 5536 5538 5541 5542 5542 5541 5541 5540 5540 5540 5539 5537 5533 5533 5535 5536 5536 5535 5535 5536 5535 5534 5534 5535 5534 5533 5533 5532 5530 5528 5527 5526 5525 5523 5522 5522 5521 5520 5520 5520 5520
5550 5550 5548 5548 5549 5549 5548 5548 5549 5549 5549 5548 5546 5544 5541 5541 5544 5545 5544 5543 5543 5542 5541 5540 5540 5540 5539 5538 5536 5534 5533 5531 5530 5528 5526 5525 5524 5523 5522 5522 5521 5521 5520
5557 5557 5557 5556 5555 5553 5553 5555 5556 5557 5558 5558 5557 5555 5551 5551 5552 5552 5551 5550 5548 5547 5546 5545 5544 5543 5543 5541 5539 5537 5535 5534 5532 5530 5527 5525 5525 5524 5523 5522 5522 5522 5521
5565 5565 5565 5564 5563 5562 5562 5563 5564 5565 5565 5565 5564 5563 5562 5559 5559 5558 5557 5556 5555 5553 5552 5550 5549 5547 5546 5544 5542 5540 5538 5536 5533 5531 5529 5526 5525 5525 5524 5523 5522 5522 5521
5571 5573 5573 5573 5572 5572 5572 5571 5572 5572 5572 5571 5571 5570 5569 5568 5567 5565 5564 5562 5561 5559 5558 5556 5554 5553 5551 5548 5546 5543 5540 5538 5535 5532 5530 5528 5527 5526 5524 5523 5522 5521 5520
5579 5580 5581 5581 5581 5580 5579 5578 5578 5578 5578 5578 5577 5577 5576 5575 5574 5573 5571 5569 5567 5566 5564 5562 5560 5558 5556 5553 5550 5547 5544 5541 5538 5535 5532 5529 5527 5526 5525 5524 5523 5522 5521